Location: Squirrel Cove
(50.1074°N, 124.9139°W)
Time: 01:31:58
(UTC-07:00)

Envisat - Visible Passes

Search period start: 12 September 2024 00:00
Search period end: 22 September 2024 00:00
Orbit: 762 x 764 km, 98.3° (Epoch: 11 September)

Date Brightness Start Highest point End Pass type
(mag) Time Alt. Az. Time Alt. Az. Time Alt. Az.
12 Sep 4.1 04:02:47 10° NNE 04:07:35 41° E 04:10:14 23° SSE visible
12 Sep 3.8 05:41:58 10° N 05:46:28 33° WNW 05:50:22 13° WSW visible
13 Sep 5.1 03:26:02 10° NE 03:29:49 21° E 03:32:15 15° SE visible
13 Sep 3.0 05:04:11 10° N 05:09:13 64° WNW 05:12:23 23° SW visible
14 Sep 3.3 04:26:42 10° NNE 04:31:46 65° ESE 04:34:24 28° S visible
14 Sep 4.3 06:06:26 10° N 06:10:18 22° WNW 06:14:09 10° WSW visible
15 Sep 4.5 03:49:34 10° NNE 03:54:07 32° E 03:56:23 22° SE visible
15 Sep 3.5 05:28:26 10° N 05:33:11 41° WNW 05:36:32 18° SW visible
16 Sep 5.4 03:13:09 10° NE 03:16:15 16° E 03:18:24 13° ESE visible
16 Sep 2.9 04:50:45 10° NNE 04:55:51 81° WNW 04:58:32 29° SSW visible
17 Sep 3.7 04:13:23 10° NNE 04:18:20 50° E 04:20:32 30° SSE visible
17 Sep 4.0 05:52:48 10° N 05:57:03 27° WNW 06:00:41 13° WSW visible
18 Sep 4.8 03:36:26 10° NE 03:40:37 25° E 03:42:32 20° SE visible
18 Sep 3.2 05:14:56 10° N 05:19:51 52° WNW 05:22:41 24° SW visible
19 Sep 5.6 03:00:37 10° ENE 03:02:40 12° E 03:04:32 10° ESE visible
19 Sep 3.0 04:37:21 10° NNE 04:42:28 80° ESE 04:44:40 35° S visible
19 Sep 4.5 06:17:23 10° NNW 06:20:50 19° WNW 06:24:18 10° W visible
20 Sep 4.1 04:00:06 10° NNE 04:04:52 39° E 04:06:40 29° SE visible
20 Sep 3.7 05:39:13 10° N 05:43:46 34° WNW 05:46:48 18° WSW visible
21 Sep 5.1 03:23:23 10° NE 03:27:04 20° E 03:28:39 17° ESE visible
21 Sep 2.9 05:01:27 10° N 05:06:30 66° WNW 05:08:47 32° SW visible
